Location: Bessat
(45.8735°N, 1.9924°E)
Time: 08:37:19
(UTC+00:00)

H-2A R/B - Pass Details

Date: 11 May 2021
Orbit: 573 x 598 km, 98.2° (Epoch: 20 June)

Event Time Altitude Azimuth Distance (km) Brightness Sun altitude
Rises 21:12:04 0° 21° (NNE) 2,845 7.4 -16.9°
Reaches altitude 10° 21:14:24 10° 30° (NNE) 1,934 6.4 -17.1°
Maximum altitude 21:18:16 36° 98° (E) 950 4.1 -17.6°
Enters shadow 21:18:49 34° 116° (ESE) 978 4.1 -17.6°
